| time (UTC) | temp F | wind direction | speed knots | gust knots | rain 1hr in | rain 24hr in | rain mn in | humidity % | barometer mb |
| 20260906191605 | 75 | 118 | 0.0 | 6.1 | 0.00 | 0.01 | 0.01 | 100 | 1016.5 |
| 20260906190052 | 75 | 76 | 1.7 | 5.2 | 0.00 | 0.01 | 0.01 | 100 | 1016.7 |
| 20260906184553 | 74 | 46 | 1.7 | 6.1 | 0.00 | 0.01 | 0.01 | 100 | 1016.8 |
| 20260906183052 | 74 | 65 | 1.7 | 4.3 | 0.00 | 0.01 | 0.01 | 100 | 1017.0 |
| 20260906181549 | 74 | 119 | 0.0 | 7.8 | 0.00 | 0.01 | 0.01 | 100 | 1017.0 |
| 20260906180104 | 73 | 65 | 0.0 | 5.2 | 0.00 | 0.01 | 0.01 | 100 | 1017.2 |
| 20260906174552 | 72 | 84 | 1.7 | 6.1 | 0.00 | 0.01 | 0.01 | 100 | 1017.5 |
| 20260906173037 | 70 | 117 | 0.9 | 3.5 | 0.00 | 0.01 | 0.01 | 100 | 1017.5 |
| 20260906171534 | 68 | 127 | 0.9 | 3.5 | 0.00 | 0.01 | 0.01 | 100 | 1017.9 |
| 20260906170032 | 67 | 128 | 0.9 | 4.3 | 0.00 | 0.01 | 0.01 | 100 | 1017.9 |
| 20260906164529 | 67 | 134 | 0.9 | 6.1 | 0.00 | 0.01 | 0.01 | 100 | 1017.9 |
| 20260906163027 | 67 | 115 | 0.9 | 5.2 | 0.00 | 0.01 | 0.01 | 100 | 1017.9 |
| 20260906161528 | 66 | 117 | 0.9 | 5.2 | 0.00 | 0.01 | 0.01 | 100 | 1018.1 |
| 20260906160030 | 66 | 108 | 1.7 | 5.2 | 0.00 | 0.01 | 0.01 | 100 | 1017.8 |
| 20260906154531 | 66 | 94 | 0.0 | 3.5 | 0.00 | 0.01 | 0.01 | 100 | 1017.7 |
| 20260906153033 | 65 | 93 | 0.0 | 2.6 | 0.00 | 0.01 | 0.01 | 100 | 1018.0 |
| 20260906151521 | 65 | 95 | 0.9 | 3.5 | 0.00 | 0.01 | 0.01 | 100 | 1018.0 |
| 20260906150023 | 64 | 92 | 0.0 | 3.5 | 0.00 | 0.01 | 0.01 | 100 | 1018.1 |
| 20260906144518 | 64 | 79 | 0.0 | 4.3 | 0.00 | 0.01 | 0.01 | 100 | 1017.9 |
| 20260906143023 | 64 | 86 | 1.7 | 6.1 | 0.00 | 0.01 | 0.01 | 100 | 1018.1 |
| 20260906141514 | 63 | 64 | 0.0 | 1.7 | 0.00 | 0.01 | 0.01 | 100 | 1018.2 |
| 20260906140019 | 62 | 65 | 0.0 | 4.3 | 0.00 | 0.01 | 0.01 | 100 | 1018.3 |
| 20260906134511 | 61 | 60 | 0.0 | 3.5 | 0.00 | 0.01 | 0.01 | 100 | 1018.3 |
| 20260906133021 | 60 | 60 | 0.9 | 3.5 | 0.00 | 0.01 | 0.01 | 100 | 1018.4 |
| 20260906131512 | 59 | 60 | 0.0 | 1.7 | 0.00 | 0.01 | 0.01 | 100 | 1018.3 |
| 20260906130009 | 58 | 61 | 0.0 | 2.6 | 0.00 | 0.01 | 0.01 | 100 | 1018.3 |
| 20260906124506 | 57 | 61 | 0.0 | 1.7 | 0.00 | 0.01 | 0.01 | 100 | 1018.1 |
| 20260906123008 | 57 | 60 | 0.0 | 0.0 | 0.00 | 0.01 | 0.01 | 100 | 1017.8 |
| 20260906121501 | 56 | 60 | 0.0 | 1.7 | 0.00 | 0.01 | 0.01 | 100 | 1017.5 |
| 20260906120001 | 56 | 61 | 0.0 | 0.0 | 0.00 | 0.01 | 0.01 | 100 | 1017.5 |
| 20260906114604 | 56 | 60 | 0.0 | 0.0 | 0.00 | 0.01 | 0.01 | 100 | 1017.6 |
| 20260906113101 | 56 | 60 | 0.0 | 0.0 | 0.00 | 0.01 | 0.01 | 100 | 1017.4 |
| 20260906111605 | 56 | 61 | 0.0 | 0.0 | 0.00 | 0.01 | 0.01 | 100 | 1017.4 |
| 20260906104556 | 56 | 61 | 0.0 | 0.0 | 0.00 | 0.01 | 0.01 | 100 | 1016.9 |
| 20260906103108 | 57 | 60 | 0.0 | 0.0 | 0.00 | 0.01 | 0.01 | 100 | 1017.1 |
| 20260906101556 | 57 | 60 | 0.0 | 0.0 | 0.00 | 0.01 | 0.01 | 100 | 1016.9 |
| 20260906100059 | 57 | 61 | 0.0 | 0.0 | 0.00 | 0.01 | 0.01 | 100 | 1017.0 |
| 20260906094551 | 58 | 60 | 0.0 | 0.0 | 0.00 | 0.01 | 0.01 | 100 | 1016.7 |
| 20260906093052 | 58 | 60 | 0.0 | 0.0 | 0.00 | 0.01 | 0.01 | 100 | 1016.9 |
| 20260906091548 | 59 | 61 | 0.0 | 0.0 | 0.00 | 0.01 | 0.01 | 100 | 1016.7 |
| 20260906090059 | 59 | 61 | 0.0 | 0.0 | 0.00 | 0.01 | 0.01 | 100 | 1016.6 |
| 20260906084547 | 59 | 61 | 0.0 | 0.0 | 0.00 | 0.01 | 0.01 | 100 | 1016.7 |
| 20260906083045 | 59 | 61 | 0.0 | 0.0 | 0.00 | 0.01 | 0.01 | 100 | 1017.0 |
| 20260906081547 | 60 | 60 | 0.0 | 0.0 | 0.00 | 0.01 | 0.01 | 100 | 1017.0 |
| 20260906080043 | 60 | 60 | 0.0 | 0.0 | 0.01 | 0.01 | 0.01 | 100 | 1017.1 |
| 20260906074541 | 60 | 60 | 0.0 | 0.0 | 0.01 | 0.01 | 0.01 | 100 | 1017.2 |
| 20260906073056 | 60 | 61 | 0.0 | 0.0 | 0.01 | 0.01 | 0.01 | 100 | 1017.3 |
| 20260906071539 | 60 | 60 | 0.0 | 0.0 | 0.01 | 0.01 | 0.01 | 100 | 1017.3 |
| 20260906070041 | 60 | 61 | 0.0 | 0.0 | 0.00 | 0.00 | 0.00 | 100 | 1016.9 |
| 20260906064538 | 60 | 61 | 0.0 | 0.0 | 0.00 | 0.00 | 0.00 | 100 | 1016.9 |
| 20260906063046 | 61 | 60 | 0.0 | 0.0 | 0.00 | 0.00 | 0.00 | 100 | 1016.8 |
| 20260906061536 | 61 | 61 | 0.0 | 0.0 | 0.00 | 0.00 | 0.00 | 100 | 1016.6 |
| 20260906060035 | 61 | 61 | 0.0 | 0.0 | 0.00 | 0.00 | 0.00 | 100 | 1016.8 |
| 20260906054536 | 61 | 61 | 0.0 | 0.0 | 0.00 | 0.00 | 0.00 | 100 | 1016.7 |
| 20260906053033 | 61 | 60 | 0.0 | 0.0 | 0.00 | 0.00 | 0.00 | 100 | 1017.0 |
| 20260906051550 | 61 | 61 | 0.0 | 0.0 | 0.00 | 0.00 | 0.00 | 100 | 1016.8 |
| 20260906050038 | 61 | 61 | 0.0 | 0.0 | 0.00 | 0.00 | 0.00 | 100 | 1017.3 |
| 20260906044534 | 61 | 60 | 0.0 | 0.0 | 0.00 | 0.00 | 0.00 | 100 | 1017.1 |
| 20260906043028 | 62 | 61 | 0.0 | 0.0 | 0.00 | 0.00 | 0.00 | 100 | 1017.3 |
| 20260906041527 | 62 | 60 | 0.0 | 0.0 | 0.00 | 0.00 | 0.00 | 100 | 1017.3 |
| 20260906040035 | 62 | 60 | 0.0 | 0.0 | 0.00 | 0.00 | 0.00 | 100 | 1017.1 |
| 20260906034533 | 63 | 61 | 0.0 | 0.0 | 0.00 | 0.00 | 0.00 | 100 | 1017.0 |
| 20260906033026 | 63 | 61 | 0.0 | 0.0 | 0.00 | 0.00 | 0.00 | 100 | 1016.8 |
| 20260906031535 | 63 | 61 | 0.0 | 2.6 | 0.00 | 0.00 | 0.00 | 100 | 1016.7 |
| 20260906030025 | 63 | 60 | 0.0 | 3.5 | 0.00 | 0.00 | 0.00 | 100 | 1016.6 |
| 20260906024525 | 63 | 61 | 0.0 | 1.7 | 0.00 | 0.00 | 0.00 | 100 | 1016.3 |
| 20260906023025 | 63 | 61 | 0.0 | 2.6 | 0.00 | 0.00 | 0.00 | 100 | 1015.8 |
| 20260906021524 | 63 | 61 | 0.9 | 4.3 | 0.00 | 0.00 | 0.00 | 100 | 1015.8 |
| 20260906020024 | 63 | 61 | 0.9 | 3.5 | 0.00 | 0.00 | 0.00 | 100 | 1015.8 |
| 20260906014528 | 63 | 61 | 0.0 | 1.7 | 0.00 | 0.00 | 0.00 | 100 | 1015.6 |
| 20260906013026 | 63 | 61 | 0.0 | 1.7 | 0.00 | 0.00 | 0.00 | 100 | 1015.5 |
| 20260906011522 | 63 | 61 | 0.0 | 3.5 | 0.00 | 0.00 | 0.00 | 100 | 1015.6 |
| 20260906010025 | 63 | 61 | 0.0 | 2.6 | 0.00 | 0.00 | 0.00 | 100 | 1015.5 |
| 20260906004521 | 63 | 61 | 0.0 | 4.3 | 0.00 | 0.00 | 0.00 | 100 | 1015.4 |
| 20260906003021 | 64 | 63 | 0.0 | 2.6 | 0.00 | 0.00 | 0.00 | 100 | 1015.3 |
| 20260906001521 | 64 | 63 | 0.0 | 5.2 | 0.00 | 0.00 | 0.00 | 100 | 1015.5 |
| 20260906000021 | 64 | 65 | 0.0 | 2.6 | 0.00 | 0.00 | 0.00 | 100 | 1015.6 |
| 20260905234520 | 65 | 65 | 0.0 | 0.0 | 0.00 | 0.00 | 0.00 | 100 | 1015.7 |
| 20260905233019 | 65 | 65 | 0.9 | 1.7 | 0.00 | 0.00 | 0.00 | 100 | 1015.8 |
| 20260905231525 | 65 | 66 | 0.0 | 1.7 | 0.00 | 0.00 | 0.00 | 100 | 1016.1 |
| 20260905230023 | 65 | 66 | 0.0 | 2.6 | 0.00 | 0.00 | 0.00 | 100 | 1015.7 |
| 20260905224518 | 65 | 65 | 0.0 | 0.0 | 0.00 | 0.00 | 0.00 | 100 | 1016.2 |
| 20260905223018 | 66 | 65 | 0.0 | 0.9 | 0.00 | 0.00 | 0.00 | 100 | 1016.1 |
| 20260905221517 | 66 | 65 | 0.0 | 1.7 | 0.00 | 0.00 | 0.00 | 100 | 1016.1 |
| 20260905220017 | 66 | 65 | 0.0 | 3.5 | 0.00 | 0.00 | 0.00 | 100 | 1016.1 |
| 20260905214517 | 66 | 66 | 0.0 | 4.3 | 0.00 | 0.00 | 0.00 | 100 | 1016.4 |
| 20260905213019 | 67 | 61 | 0.0 | 3.5 | 0.00 | 0.00 | 0.00 | 100 | 1016.8 |
| 20260905211517 | 68 | 60 | 0.0 | 0.9 | 0.00 | 0.00 | 0.00 | 100 | 1016.5 |
| 20260905210022 | 68 | 59 | 0.0 | 0.0 | 0.00 | 0.00 | 0.00 | 100 | 1016.8 |
| 20260905204515 | 68 | 59 | 0.0 | 3.5 | 0.00 | 0.00 | 0.00 | 100 | 1016.6 |
| 20260905203016 | 68 | 59 | 0.9 | 3.5 | 0.00 | 0.00 | 0.00 | 100 | 1016.5 |
| 20260905201514 | 69 | 59 | 0.0 | 4.3 | 0.00 | 0.00 | 0.00 | 100 | 1016.8 |
| 20260905200021 | 69 | 72 | 0.0 | 3.5 | 0.00 | 0.00 | 0.00 | 100 | 1016.5 |
| 20260905194513 | 70 | 73 | 0.9 | 5.2 | 0.00 | 0.00 | 0.00 | 100 | 1016.4 |
| 20260905193012 | 70 | 67 | 0.0 | 2.6 | 0.00 | 0.00 | 0.00 | 100 | 1016.6 |